Regional Weather Roundup
Issued by NWS Sterling, VA

Current Version | Previous Version | Text Only | Print | Product List | Glossary On
Versions: 1 2 3 4 5 6 7 8 9 10 11 12 13 14 15 16 17 18 19 20 21 22 23 24 25 26 27 28 29 30 31 32 33 34 35 36 37 38 39 40 41 42 43 44 45 46 47 48 49 50
000
ASUS41 KLWX 050310
RWRLWX

REGIONAL WEATHER ROUNDUP
NATIONAL WEATHER SERVICE BALTIMORE MD/WASHINGTON DC
1100 PM EDT MON MAY 04 2015

Note: "FAIR" indicates few or no clouds below 12,000 feet
with no significant weather and/or obstructions to visibility.
 TC=TEMPERATURE CELSIUS

 * =Non NWS site. Station does not report precipitation (e.g. rain,
    snow, etc.), thunder, or fog.

DCZ001-MDZ009-015-VAZ040>042-051-053>054-050400-
WASHINGTON METRO

CITY           SKY/WX    TMP DP  RH WIND       PRES   REMARKS
WASHINGTON NAT PTCLDY    71  58  63 S10       30.19S
DULLES         PTCLDY    71  52  50 S8        30.18S
ANDREWS AFB    CLEAR     69  53  56 S12       30.19S
FT BELVOIR     CLEAR     62  55  79 SE3       30.20R
QUANTICO       CLEAR     70  57  63 SW8       30.21R
COLLEGE PARK*  CLEAR     73  50  43 S6        30.19S
LEESBURG*      CLEAR     72  55  56 S7        30.20R
MANASSAS*      CLEAR     70  54  56 S6        30.19S
GAITHERSBURG*  FAIR      72  48  43 SE6       30.23R

$$

MDZ006>007-011-014-050400-
BALTIMORE METRO

CITY           SKY/WX    TMP DP  RH WIND       PRES   REMARKS
BWI AIRPORT    PTCLDY    69  52  54 S3        30.18S
MD SCIENCE CTR   N/A     70  53  54 MISG      30.19S
MARTIN STATE   CLEAR     68  54  60 S10G18    30.20S
ANNAPOLIS      CLEAR     64  54  69 S8        30.19S
FORT MEADE*    CLEAR     59  54  82 CALM      30.21S

$$

MDZ012-015-019>023-050400-
MARYLAND EASTERN SHORE

CITY           SKY/WX    TMP DP  RH WIND       PRES   REMARKS
OCEAN CITY     CLEAR     63  53  70 SW10      30.26S
SALISBURY      CLEAR     64  45  49 S8        30.24S
BAY BRIDGE AP*   N/A    N/A N/A N/A S13       30.20S
CAMBRIDGE*     CLEAR     68  54  60 S7        30.23S
EASTON*        CLEAR     69  54  58 S10       30.25F

$$

MDZ017>025-050400-
SOUTHERN MARYLAND

CITY           SKY/WX    TMP DP  RH WIND       PRES   REMARKS
PATUXENT RIVER PTCLDY    68  53  58 S9        30.22R
ST INIGOES     CLEAR     69  54  58 S9        30.22S
LEONARDTOWN*   CLEAR     68  52  56 S5        30.24S

$$

MDZ003>005-050400-
NORTH CENTRAL MARYLAND

CITY           SKY/WX    TMP DP  RH WIND       PRES   REMARKS
FREDERICK*     FAIR      68  46  45 CALM      30.20R
HAGERSTOWN APT MOCLDY    70  50  49 S6        30.16S
WESTMINSTER*   FAIR      70  52  52 SE6       30.19S

$$

MDZ501>502-050400-
WESTERN MARYLAND

CITY           SKY/WX    TMP DP  RH WIND       PRES   REMARKS
OAKLAND*       MOCLDY    64  46  52 W6        30.28S
CUMBERLAND*    CLEAR     68  46  45 N3        30.22R

$$

VAZ025>031-050400-
SHENANDOAH VALLEY

CITY           SKY/WX    TMP DP  RH WIND       PRES   REMARKS
WINCHESTER*    PTCLDY    68  45  42 SW3       30.19R
FRONT ROYAL*   FAIR      66  50  55 S5        30.18S
LURAY*         MOCLDY    70  54  56 S5        30.21R
NEW MARKET*    CLOUDY    71  52  52 SW8       30.20R
STAUNTON*      CLEAR     63  51  65 CALM      30.25R
WAYNESBORO*    FAIR      67  50  53 S5        30.24R

$$

WVZ021-048>050-054>055-050400-
EASTERN WEST VIRGINIA PANHANDLE

CITY           SKY/WX    TMP DP  RH WIND       PRES   REMARKS
MARTINSBURG    PTCLDY    68  51  54 SW3       30.18R
PETERSBURG*    CLEAR     59  48  67 CALM      30.22R

$$

VAZ036>039-050-050400-
CENTRAL FOOTHILLS

CITY           SKY/WX    TMP DP  RH WIND       PRES   REMARKS
CHARLOTTESVILL PTCLDY    67  53  61 S8        30.21R
CULPEPER*      NOT AVBL
ORANGE*        CLEAR     64  54  68 CALM      30.23S
GORDONSVILLE*  FAIR      60  55  82 CALM      30.21S
WARRENTON*     FAIR      71  56  59 S6        30.20R

$$

VAZ055>057-050400-
NORTH AND CENTRAL PIEDMONT

CITY           SKY/WX    TMP DP  RH WIND       PRES   REMARKS
FREDERICKSBRG* CLEAR     73  55  52 S9        30.20S
STAFFORD*      CLEAR     70  50  49 S3        30.24S

$$

NCZ024-NYZ072-PAZ021-071-VAZ022-071-050400-
OTHER REGIONAL OBSERVATIONS

CITY           SKY/WX    TMP DP  RH WIND       PRES   REMARKS
NEW YORK CITY  CLEAR     73  41  31 VRB7      30.18S
PHILADELPHIA   PTCLDY    71  48  43 S7        30.19S
PITTSBURGH     CLOUDY    64  60  87 CALM      30.22S
ROANOKE        CLEAR     69  51  52 SW3       30.28R
RICHMOND       PTCLDY    69  51  52 S8        30.24R
RALEIGH        CLEAR     69  54  58 S12G18    30.31R

$$

ANZ530>537-050400-
MARINE OBSERVATIONS

STATION/POSITION TIME  TEMP    WIND        PRES
                       AIR SEA DIR/SP/G
                 (UTC) (F)     (DEG/KT/KT) (MB)
THOMAS PT LIGHT  0300   63 57  170/ 18/ 19 1023.0S
BALT KEY BRIDGE  0200   69     150/ 13/ 14 1021.8R
COVE POINT       0200   64     190/ 14/ 15 1023.9R
LEWISETTA        0200   70 67              1023.3R
SOLOMONS ISLAND  0200      63                N/A
PINEY POINT      0200          180/  7/  8   N/A

$$



USA.gov is the U.S. government's official web portal to all federal, state and local government web resources and services.